sat.trackr.live / text

‹ back to catalog

STARK

NORAD 65299 · 2025-185C

PAYLOAD ACTIVE UNKNOWN

§ Identity

Operator
Country
RWA
Launch date
2025-08-23
Launch site
RLLB
Launch vehicle
Mass (kg)
RCS (m²)

External: N2YO · Heavens-Above · Gunter

§ Orbital elements

Epoch: 2026-09-20T05:34:31.121760Z

Period
97.09 min
Inclination
97.9664°
Eccentricity
0.0013060
Mean motion
14.83207257 rev/d
Perigee alt
610.1 km
Apogee alt
628.4 km
Semi-major
6,997.4 km
B*
1.5822e-4
RAAN
346.3894°
Arg perigee
137.8146°
Mean anomaly
222.4074°
Rev number
5,793

§ Raw data

STARK1 65299U 25185C   26263.23230465  .00001240  00000+0  15822-3 0  99932 65299  97.9664 346.3894 0013060 137.8146 222.4074 14.83207257 57935

JSON: /api/v1/satellites/65299 · /tle

For live sub-satellite position, see the globe view (requires WebGL).

§ Visibility from observer

Set your observer location to see the next 7 days of passes ≥ 10°. The values pass through the URL so the page stays shareable.

No JS? Fill the form by hand. The geolocation button needs JavaScript.